Regional Weather Roundup
Issued by NWS

Home | Current Version | Previous Version | Text Only | Print | Product List | Glossary Off
Versions: 1 2 3 4 5 6 7 8 9 10 11 12 13 14 15 16 17 18 19 20 21 22 23 24 25 26 27 28 29 30 31 32 33 34 35 36 37 38 39 40 41 42 43 44 45 46 47 48 49 50

000
ASUS43 KOAX 240502
RWRNE

WEATHER ROUNDUP FOR NEBRASKA
NATIONAL WEATHER SERVICE OMAHA NE
1200 AM CDT WED MAY 24 2017

NOTES: SATELLITE DATA IS BEING USED TO AUGMENT CLOUD COVER ABOVE
       12000 FEET.
       "FAIR" INDICATES FEW OR NO CLOUDS BELOW 12,000 FEET WITH NO
       SIGNIFICANT WEATHER AND/OR OBSTRUCTIONS TO VISIBILITY.

  * THESE STATIONS DO NOT REPORT WEATHER SUCH AS RAIN...SNOW OR FOG.

NEZ001>004-019>022-054>056-240600-
NEBRASKA PANHANDLE

CITY           SKY/WX    TMP DP  RH WIND       PRES   REMARKS
SCOTTSBLUFF    CLEAR     46  37  71 CALM      30.03F
ALLIANCE       CLOUDY    38  33  82 CALM      30.02S
CHADRON        CLOUDY    42  38  85 CALM      30.01F
GORDON         FAIR      40  35  83 SW5       30.01F
KIMBALL        CLOUDY    40  35  82 CALM      30.05F
SIDNEY         CLOUDY    37  33  85 CALM      30.04F
$$

NEZ057>060-069>072-079>082-240600-
SOUTHWEST NEBRASKA

CITY           SKY/WX    TMP DP  RH WIND       PRES   REMARKS
NORTH PLATTE   CLEAR     44  39  82 N8        30.00S
IMPERIAL       CLEAR     44  35  70 NW6       30.01F
LEXINGTON      CLEAR     42  38  86 W5        29.97S
MCCOOK         CLEAR     45  37  73 N10       29.99S
$$

NEZ005>010-023>029-035>040-094-240600-
NORTH CENTRAL NEBRASKA

CITY           SKY/WX    TMP DP  RH WIND       PRES   REMARKS
VALENTINE      CLEAR     42  35  76 W8        29.99F
AINSWORTH      CLOUDY    48  42  79 NW6       29.97F
BROKEN BOW     CLOUDY    49  40  71 N10       29.96F
ORD            CLOUDY    50  41  71 N9        29.93F
$$

NEZ041-046>049-061>064-073>077-083>087-240600-
SOUTH CENTRAL NEBRASKA

CITY           SKY/WX    TMP DP  RH WIND       PRES   REMARKS
GRAND ISLAND   CLOUDY    50  43  77 N14       29.92F
AURORA         CLOUDY    50  44  80 N14       29.91F
HASTINGS       CLOUDY    50  42  74 N14       29.93F
HEBRON         PTCLDY    51  44  78 N9        29.90S
HOLDREGE       CLEAR     45  39  79 NW5       29.95F
KEARNEY *      CLOUDY    48  39  71 N10       29.95F
$$

NEZ011>018-030>034-042>045-240600-
NORTHEAST NEBRASKA

CITY           SKY/WX    TMP DP  RH WIND       PRES   REMARKS
NORFOLK        MOCLDY    49  44  83 NW14      29.88F
ALBION         CLOUDY    51  43  75 N9        29.91F
BLAIR          PTCLDY    50  47  90 NW10      29.82F
FREMONT        PTCLDY    51  46  84 NW10G16   29.85F
TEKAMAH        MOCLDY    50  46  86 NW12      29.84S
WAYNE          MOCLDY    49  49  99 NW10      29.87F
$$

NEZ050>053-065>068-078-088>093-240600-
SOUTHEAST NEBRASKA

CITY           SKY/WX    TMP DP  RH WIND       PRES   REMARKS
LINCOLN        CLOUDY    53  45  74 NW17      29.87F
OMAHA EPPLEY   PTCLDY    49  45  86 NW8       29.82F
BEATRICE       CLOUDY    52  46  80 N13       29.85F
FALLS CITY     PTCLDY    50  46  86 W10       29.80F
NEBRASKA CITY  CLOUDY    52  46  79 NW13      29.81F
$$

NEZ044-045-051>053-067-240600-
OMAHA AREA

CITY           SKY/WX    TMP DP  RH WIND       PRES   REMARKS
OMAHA EPPLEY   PTCLDY    49  45  86 NW8       29.82F
BLAIR          PTCLDY    50  47  90 NW10      29.82F
FREMONT        PTCLDY    51  46  84 NW10G16   29.85F
OFFUTT AFB     PTCLDY    50  47  89 NW7       29.81F
WAHOO          CLOUDY    51  46  84 NW12G17   29.85S
$$




USA.gov is the U.S. government's official web portal to all federal, state and local government web resources and services.